AFL2905 OMDB-URSS

Flight info

Callsign AFL2905
Flight time 2h 49m
Altitude 34000
Route DAVMO M318 GABKO M317 ROTAL P574 EGVEL/N0456F360 P574 SAV R654 MAGRI N77 OGEVI DCT AGISO DCT BANUT BANUT1K
Aircraft B738/M-SADE2E3GIJ4RWZ/LB1D1

Departure

Time 2026-04-25 19:05
Airport Dubai International Airport (OMDB)

Arrival

Time 2026-04-25 21:54
Airport Sochi International Airport (URSS)
Time Latitude Longitude Altitude Speed Heading
2026-04-25 18:26 25.25005 55.36052 69 ft 0 kts 210°
2026-04-25 18:47 25.25018 55.36061 69 ft 2 kts 217°
2026-04-25 18:48 25.25029 55.36072 69 ft 2 kts 226°
2026-04-25 18:48 25.25040 55.36086 69 ft 2 kts 236°
2026-04-25 18:48 25.25048 55.36101 69 ft 2 kts 245°
2026-04-25 18:48 25.25053 55.36118 69 ft 2 kts 255°
2026-04-25 18:49 25.25057 55.36136 69 ft 2 kts 265°
2026-04-25 18:49 25.25057 55.36154 69 ft 2 kts 274°
2026-04-25 18:49 25.25054 55.36172 69 ft 2 kts 284°
2026-04-25 18:49 25.25048 55.36191 69 ft 2 kts 295°
2026-04-25 18:50 25.25043 55.36202 69 ft 1 kts 302°
2026-04-25 18:50 25.25042 55.36204 69 ft 0 kts 302°
2026-04-25 18:53 25.25048 55.36194 69 ft 3 kts 302°
2026-04-25 18:54 25.25094 55.36113 69 ft 9 kts 302°
2026-04-25 18:54 25.25135 55.36043 69 ft 8 kts 302°
2026-04-25 18:54 25.25167 55.35980 69 ft 7 kts 299°
2026-04-25 18:55 25.25194 55.35929 69 ft 6 kts 301°
2026-04-25 18:55 25.25233 55.35860 69 ft 11 kts 302°
2026-04-25 18:55 25.25294 55.35751 69 ft 16 kts 301°
2026-04-25 18:55 25.25370 55.35617 69 ft 18 kts 301°
2026-04-25 18:56 25.25446 55.35478 69 ft 17 kts 301°
2026-04-25 18:56 25.25522 55.35342 68 ft 17 kts 302°
2026-04-25 18:56 25.25594 55.35213 68 ft 15 kts 300°
2026-04-25 18:56 25.25655 55.35151 68 ft 8 kts
2026-04-25 18:57 25.25701 55.35184 68 ft 6 kts 37°
2026-04-25 18:57 25.25742 55.35204 68 ft 5 kts 19°
2026-04-25 18:57 25.25791 55.35235 68 ft 8 kts 32°
2026-04-25 18:57 25.25834 55.35264 68 ft 10 kts 32°
2026-04-25 18:58 25.25934 55.35334 68 ft 10 kts 40°
2026-04-25 18:58 25.25974 55.35552 69 ft 14 kts 116°
2026-04-25 18:58 25.25917 55.35665 69 ft 13 kts 120°
2026-04-25 18:59 25.25785 55.35901 69 ft 17 kts 122°
2026-04-25 18:59 25.25621 55.36200 69 ft 18 kts 120°
2026-04-25 19:00 25.25484 55.36451 69 ft 14 kts 122°
2026-04-25 19:00 25.25422 55.36558 69 ft 13 kts 122°
2026-04-25 19:01 25.25306 55.36761 69 ft 18 kts 121°
2026-04-25 19:01 25.25223 55.36909 69 ft 22 kts 122°
2026-04-25 19:01 25.25122 55.37087 69 ft 26 kts 121°
2026-04-25 19:01 25.25018 55.37281 69 ft 25 kts 119°
2026-04-25 19:02 25.24824 55.37632 69 ft 22 kts 121°
2026-04-25 19:02 25.24745 55.37781 69 ft 17 kts 120°
2026-04-25 19:02 25.24697 55.37867 69 ft 7 kts 123°
2026-04-25 19:03 25.24673 55.37915 69 ft 2 kts 98°
2026-04-25 19:03 25.24696 55.37970 69 ft 10 kts 37°
2026-04-25 19:03 25.24803 55.37996 69 ft 19 kts 334°
2026-04-25 19:04 25.25427 55.36908 69 ft 149 kts 300°
2026-04-25 19:04 25.26191 55.35535 268 ft 198 kts 302°
2026-04-25 19:05 25.27958 55.32296 2153 ft 211 kts 302°
2026-04-25 19:05 25.29895 55.29811 3660 ft 204 kts 335°
2026-04-25 19:05 25.31335 55.29479 4062 ft 218 kts 360°
2026-04-25 19:06 25.32898 55.29549 4455 ft 232 kts
2026-04-25 19:06 25.36280 55.29826 5404 ft 255 kts 17°
2026-04-25 19:06 25.37941 55.30838 5775 ft 273 kts 34°
2026-04-25 19:07 25.41283 55.33512 6910 ft 287 kts 32°
2026-04-25 19:07 25.42981 55.34757 7534 ft 290 kts 31°
2026-04-25 19:08 25.46612 55.37318 8809 ft 296 kts 30°
2026-04-25 19:08 25.48406 55.38575 9406 ft 299 kts 30°
2026-04-25 19:09 25.54272 55.42704 10745 ft 328 kts 31°
2026-04-25 19:09 25.55645 55.43670 10933 ft 339 kts 31°
2026-04-25 19:09 25.60613 55.47175 11669 ft 370 kts 32°
2026-04-25 19:10 25.62820 55.48734 12206 ft 375 kts 32°
2026-04-25 19:10 25.65019 55.50289 12749 ft 378 kts 32°
2026-04-25 19:10 25.67235 55.51855 13289 ft 382 kts 32°
2026-04-25 19:10 25.69520 55.53472 13834 ft 385 kts 32°
2026-04-25 19:11 25.71843 55.55116 14376 ft 389 kts 32°
2026-04-25 19:11 25.74250 55.56821 14927 ft 393 kts 32°
2026-04-25 19:11 25.76652 55.58523 15465 ft 396 kts 32°
2026-04-25 19:11 25.79083 55.60245 16001 ft 400 kts 32°
2026-04-25 19:12 25.81520 55.61974 16530 ft 403 kts 32°
2026-04-25 19:12 25.83973 55.63714 17053 ft 407 kts 32°
2026-04-25 19:12 25.86413 55.65446 17563 ft 410 kts 32°
2026-04-25 19:12 25.89157 55.67387 18117 ft 414 kts 32°
2026-04-25 19:13 25.91930 55.69343 18661 ft 417 kts 32°
2026-04-25 19:13 25.94676 55.71280 19188 ft 421 kts 32°
2026-04-25 19:13 25.97347 55.73163 19690 ft 424 kts 32°
2026-04-25 19:13 26.00099 55.75105 20194 ft 428 kts 31°
2026-04-25 19:14 26.02970 55.77039 20696 ft 430 kts 28°
2026-04-25 19:14 26.04899 55.78114 21012 ft 431 kts 22°
2026-04-25 19:14 26.09274 55.79518 21673 ft 431 kts
2026-04-25 19:14 26.12421 55.79751 22125 ft 431 kts 357°
2026-04-25 19:15 26.15709 55.79542 22590 ft 431 kts 349°
2026-04-25 19:15 26.19027 55.78674 23072 ft 428 kts 338°
2026-04-25 19:15 26.22066 55.77125 23537 ft 426 kts 326°
2026-04-25 19:15 26.24710 55.75000 23984 ft 424 kts 316°
2026-04-25 19:16 26.27025 55.72443 24426 ft 424 kts 309°
2026-04-25 19:16 26.29157 55.69561 24876 ft 425 kts 306°
2026-04-25 19:16 26.31223 55.66601 25328 ft 426 kts 303°
2026-04-25 19:16 26.32925 55.63452 25776 ft 425 kts 294°
2026-04-25 19:17 26.34207 55.60223 26185 ft 427 kts 293°
2026-04-25 19:17 26.35768 55.56988 26601 ft 431 kts 299°
2026-04-25 19:17 26.37680 55.53783 27025 ft 434 kts 303°
2026-04-25 19:17 26.39579 55.50942 27407 ft 437 kts 305°
2026-04-25 19:18 26.41701 55.47944 27809 ft 440 kts 306°
2026-04-25 19:18 26.43800 55.45055 28178 ft 442 kts 306°
2026-04-25 19:18 26.45960 55.42106 28565 ft 445 kts 307°
2026-04-25 19:18 26.48219 55.39021 28966 ft 447 kts 306°
2026-04-25 19:19 26.50491 55.35910 29363 ft 449 kts 306°
2026-04-25 19:19 26.52629 55.32972 29743 ft 451 kts 306°
2026-04-25 19:19 26.54945 55.29779 30316 ft 449 kts 306°
2026-04-25 19:19 26.56462 55.27683 30697 ft 447 kts 306°
2026-04-25 19:20 26.59474 55.23511 31468 ft 443 kts 305°
2026-04-25 19:20 26.61754 55.20346 32050 ft 440 kts 305°
2026-04-25 19:20 26.64015 55.17202 32619 ft 437 kts 305°
2026-04-25 19:20 26.66251 55.14090 33186 ft 434 kts 304°
2026-04-25 19:21 26.68493 55.10966 33751 ft 432 kts 304°
2026-04-25 19:21 26.72835 55.04911 34807 ft 426 kts 304°
2026-04-25 19:21 26.74991 55.01902 35263 ft 423 kts 304°
2026-04-25 19:22 26.77114 54.98935 35692 ft 421 kts 304°
2026-04-25 19:22 26.79275 54.95912 36015 ft 421 kts 304°
2026-04-25 19:23 26.85549 54.87089 36035 ft 411 kts 304°
2026-04-25 19:23 26.91636 54.78497 36015 ft 412 kts 304°
2026-04-25 19:24 26.95752 54.72680 36042 ft 413 kts 304°
2026-04-25 19:25 27.03996 54.61019 36091 ft 412 kts 304°
2026-04-25 19:25 27.08103 54.55197 36099 ft 412 kts 304°
2026-04-25 19:26 27.11963 54.49720 36059 ft 412 kts 304°
2026-04-25 19:26 27.15951 54.44053 35993 ft 412 kts 304°
2026-04-25 19:27 27.19350 54.39217 35979 ft 412 kts 304°
2026-04-25 19:27 27.23990 54.32608 36166 ft 414 kts 303°
2026-04-25 19:28 27.28235 54.26551 36162 ft 414 kts 303°
2026-04-25 19:28 27.32375 54.20645 36134 ft 412 kts 303°
2026-04-25 19:29 27.36513 54.14722 36112 ft 412 kts 303°
2026-04-25 19:29 27.40608 54.08857 36084 ft 413 kts 303°
2026-04-25 19:30 27.44739 54.02930 36054 ft 414 kts 303°
2026-04-25 19:30 27.48871 53.96995 36020 ft 414 kts 303°
2026-04-25 19:31 27.53094 53.91108 36008 ft 416 kts 307°
2026-04-25 19:31 27.58438 53.86235 36017 ft 428 kts 322°
2026-04-25 19:32 27.64502 53.82330 36027 ft 431 kts 325°
2026-04-25 19:32 27.69605 53.79200 36030 ft 431 kts 325°
2026-04-25 19:33 27.76781 53.74738 36035 ft 431 kts 324°
2026-04-25 19:33 27.82904 53.70874 36050 ft 431 kts 324°
2026-04-25 19:34 27.88998 53.67003 36069 ft 431 kts 324°
2026-04-25 19:34 27.95101 53.63112 36115 ft 430 kts 324°
2026-04-25 19:35 28.01166 53.59238 36175 ft 431 kts 324°
2026-04-25 19:35 28.07199 53.55381 36205 ft 431 kts 324°
2026-04-25 19:36 28.12815 53.51786 36213 ft 431 kts 324°
2026-04-25 19:36 28.18908 53.47881 36197 ft 431 kts 324°
2026-04-25 19:37 28.24830 53.44081 36177 ft 431 kts 324°
2026-04-25 19:37 28.30787 53.40252 36155 ft 431 kts 324°
2026-04-25 19:38 28.36635 53.36488 36120 ft 432 kts 324°
2026-04-25 19:38 28.42383 53.32785 36067 ft 432 kts 324°
2026-04-25 19:39 28.48403 53.28902 36049 ft 432 kts 324°
2026-04-25 19:39 28.54314 53.25081 36064 ft 433 kts 324°
2026-04-25 19:40 28.60361 53.21120 36112 ft 433 kts 323°
2026-04-25 19:40 28.66451 53.17106 36173 ft 433 kts 323°
2026-04-25 19:41 28.72599 53.13050 36248 ft 432 kts 323°
2026-04-25 19:41 28.77672 53.09702 36299 ft 432 kts 323°
2026-04-25 19:42 28.91559 53.00524 36215 ft 431 kts 323°
2026-04-25 19:42 29.06386 52.90694 36258 ft 433 kts 323°
2026-04-25 19:43 29.19448 52.82014 36219 ft 433 kts 323°
2026-04-25 19:43 29.33860 52.72405 36196 ft 434 kts 323°
2026-04-25 19:44 29.48533 52.62590 36207 ft 434 kts 323°
2026-04-25 19:44 29.65754 52.54179 36254 ft 448 kts 336°
2026-04-25 19:45 29.85081 52.47090 36281 ft 447 kts 335°
2026-04-25 19:45 30.04183 52.39764 36287 ft 446 kts 335°
2026-04-25 19:46 30.19480 52.33885 36380 ft 449 kts 334°
2026-04-25 19:46 30.27525 52.30780 36392 ft 448 kts 334°
2026-04-25 19:47 30.33693 52.27937 36375 ft 445 kts 330°
2026-04-25 19:47 30.40001 52.25262 36364 ft 450 kts 334°
2026-04-25 19:48 30.46623 52.22803 36302 ft 453 kts 337°
2026-04-25 19:48 30.53133 52.20684 36369 ft 448 kts 336°
2026-04-25 19:49 30.58401 52.18786 36426 ft 450 kts 335°
2026-04-25 19:49 30.65620 52.16044 36495 ft 449 kts 334°
2026-04-25 19:50 30.75662 52.12135 36583 ft 449 kts 334°
2026-04-25 19:51 30.82339 52.09518 36573 ft 449 kts 334°
2026-04-25 19:51 30.88942 52.06929 36557 ft 448 kts 334°
2026-04-25 19:52 30.95496 52.04355 36536 ft 449 kts 334°
2026-04-25 19:52 31.02038 52.01781 36525 ft 450 kts 334°
2026-04-25 19:53 31.08545 51.99221 36535 ft 450 kts 334°
2026-04-25 19:53 31.14681 51.96803 36531 ft 449 kts 334°
2026-04-25 19:54 31.21203 51.94230 36524 ft 448 kts 334°
2026-04-25 19:54 31.27795 51.91625 36534 ft 448 kts 334°
2026-04-25 19:55 31.34398 51.89009 36542 ft 449 kts 334°
2026-04-25 19:55 31.40981 51.86400 36557 ft 449 kts 334°
2026-04-25 19:56 31.47536 51.83797 36584 ft 450 kts 334°
2026-04-25 19:56 31.54026 51.81214 36605 ft 451 kts 334°
2026-04-25 19:57 31.60507 51.78632 36593 ft 450 kts 334°
2026-04-25 19:57 31.66750 51.76142 36580 ft 451 kts 334°
2026-04-25 19:58 31.72893 51.73687 36559 ft 451 kts 334°
2026-04-25 19:58 31.79057 51.71224 36526 ft 451 kts 334°
2026-04-25 19:59 31.99822 51.62909 36523 ft 453 kts 334°
2026-04-25 19:59 32.17605 51.55757 36391 ft 452 kts 334°
2026-04-25 20:00 32.35764 51.48420 36334 ft 452 kts 334°
2026-04-25 20:00 32.41838 51.45958 36332 ft 451 kts 334°
2026-04-25 20:01 32.50937 51.42266 36336 ft 450 kts 333°
2026-04-25 20:01 32.57000 51.39800 36353 ft 450 kts 333°
2026-04-25 20:02 32.63056 51.37334 36367 ft 450 kts 333°
2026-04-25 20:02 32.69188 51.34832 36380 ft 449 kts 333°
2026-04-25 20:03 32.75440 51.32279 36388 ft 449 kts 333°
2026-04-25 20:03 32.81929 51.29623 36384 ft 448 kts 332°
2026-04-25 20:04 32.88269 51.27025 36381 ft 448 kts 332°
2026-04-25 20:04 32.94776 51.24356 36377 ft 447 kts 332°
2026-04-25 20:05 33.01285 51.21684 36368 ft 447 kts 332°
2026-04-25 20:05 33.07835 51.18991 36367 ft 447 kts 332°
2026-04-25 20:06 33.14027 51.16439 36368 ft 447 kts 332°
2026-04-25 20:06 33.20727 51.13674 36383 ft 447 kts 332°
2026-04-25 20:07 33.27321 51.10949 36406 ft 447 kts 332°
2026-04-25 20:07 33.33939 51.08211 36436 ft 448 kts 332°
2026-04-25 20:08 33.40513 51.05488 36380 ft 447 kts 332°
2026-04-25 20:08 33.47089 51.02758 36324 ft 446 kts 332°
2026-04-25 20:09 33.53718 50.99999 36281 ft 445 kts 332°
2026-04-25 20:09 33.60311 50.97249 36327 ft 446 kts 332°
2026-04-25 20:10 33.67061 50.94428 36331 ft 446 kts 332°
2026-04-25 20:10 33.73663 50.91666 36289 ft 446 kts 332°
2026-04-25 20:11 33.80225 50.88918 36242 ft 444 kts 332°
2026-04-25 20:11 33.86750 50.86181 36285 ft 444 kts 332°
2026-04-25 20:12 33.93198 50.83471 36408 ft 444 kts 332°
2026-04-25 20:12 33.98547 50.81218 36419 ft 445 kts 332°
2026-04-25 20:13 34.06046 50.78061 36353 ft 441 kts 332°
2026-04-25 20:13 34.12220 50.75453 36356 ft 443 kts 332°
2026-04-25 20:14 34.18199 50.72921 36376 ft 444 kts 332°
2026-04-25 20:14 34.24814 50.70119 36366 ft 443 kts 332°
2026-04-25 20:15 34.31672 50.67209 36297 ft 444 kts 332°
2026-04-25 20:15 34.38581 50.64274 36231 ft 442 kts 332°
2026-04-25 20:16 34.45334 50.61399 36186 ft 442 kts 332°
2026-04-25 20:16 34.51945 50.58577 36159 ft 442 kts 332°
2026-04-25 20:17 34.58894 50.55608 36145 ft 443 kts 333°
2026-04-25 20:17 34.65815 50.52646 36129 ft 443 kts 333°
2026-04-25 20:18 34.72833 50.49636 36112 ft 444 kts 333°
2026-04-25 20:18 34.79793 50.46651 36109 ft 444 kts 333°
2026-04-25 20:19 34.86716 50.43678 36109 ft 445 kts 333°
2026-04-25 20:19 34.93298 50.40847 36107 ft 446 kts 333°
2026-04-25 20:20 34.99591 50.37936 36101 ft 440 kts 327°
2026-04-25 20:20 35.04817 50.33894 36113 ft 427 kts 314°
2026-04-25 20:21 35.09673 50.28702 36139 ft 423 kts 310°
2026-04-25 20:21 35.14135 50.23643 36198 ft 424 kts 310°
2026-04-25 20:22 35.18718 50.18449 36274 ft 425 kts 310°
2026-04-25 20:22 35.36189 49.98824 36327 ft 428 kts 311°
2026-04-25 20:23 35.51062 49.82070 36314 ft 427 kts 311°
2026-04-25 20:23 35.65847 49.65323 36230 ft 428 kts 311°
2026-04-25 20:24 35.80581 49.48547 36212 ft 428 kts 311°
2026-04-25 20:24 35.94318 49.32826 36214 ft 428 kts 310°
2026-04-25 20:25 36.07246 49.17958 36291 ft 427 kts 310°
2026-04-25 20:25 36.18363 49.05119 36306 ft 428 kts 311°
2026-04-25 20:26 36.32294 48.88954 36279 ft 427 kts 311°
2026-04-25 20:26 36.46279 48.72641 36164 ft 427 kts 311°
2026-04-25 20:27 36.60103 48.56437 36231 ft 427 kts 311°
2026-04-25 20:27 36.74337 48.39668 36165 ft 427 kts 311°
2026-04-25 20:28 36.85978 48.27780 36143 ft 434 kts 319°
2026-04-25 20:28 36.91321 48.23186 36137 ft 433 kts 319°
2026-04-25 20:29 36.96675 48.18476 36140 ft 433 kts 319°
2026-04-25 20:29 37.01935 48.13770 36126 ft 432 kts 318°
2026-04-25 20:30 37.07425 48.08818 36110 ft 432 kts 318°
2026-04-25 20:30 37.12658 48.04079 36105 ft 431 kts 318°
2026-04-25 20:31 37.18296 47.98958 36109 ft 432 kts 318°
2026-04-25 20:31 37.23909 47.93853 36111 ft 431 kts 318°
2026-04-25 20:32 37.29424 47.88826 36100 ft 431 kts 318°
2026-04-25 20:32 37.34890 47.83835 36083 ft 430 kts 318°
2026-04-25 20:33 37.40487 47.78713 36080 ft 431 kts 318°
2026-04-25 20:33 37.45147 47.74442 36088 ft 431 kts 318°
2026-04-25 20:34 37.51654 47.68475 36116 ft 430 kts 318°
2026-04-25 20:34 37.56760 47.63785 36202 ft 430 kts 318°
2026-04-25 20:35 37.61676 47.59260 36237 ft 433 kts 318°
2026-04-25 20:35 37.64217 47.56916 36026 ft 434 kts 319°
2026-04-25 20:35 37.66746 47.54584 35775 ft 432 kts 319°
2026-04-25 20:36 37.69300 47.52229 35508 ft 430 kts 319°
2026-04-25 20:36 37.71728 47.49989 35196 ft 430 kts 319°
2026-04-25 20:36 37.74186 47.47715 34847 ft 432 kts 319°
2026-04-25 20:36 37.76656 47.45428 34511 ft 431 kts 319°
2026-04-25 20:37 37.79039 47.43226 34685 ft 417 kts 319°
2026-04-25 20:37 37.81390 47.41055 34932 ft 413 kts 319°
2026-04-25 20:37 37.83670 47.38942 35163 ft 410 kts 319°
2026-04-25 20:37 37.85993 47.36785 35388 ft 407 kts 319°
2026-04-25 20:38 37.88244 47.34692 35596 ft 404 kts 318°
2026-04-25 20:38 37.90528 47.32567 35887 ft 402 kts 318°
2026-04-25 20:38 37.92874 47.30384 36211 ft 400 kts 317°
2026-04-25 20:38 37.95139 47.28274 36341 ft 405 kts 317°
2026-04-25 20:39 37.99799 47.23914 36279 ft 421 kts 317°
2026-04-25 20:39 38.03793 47.20178 36275 ft 431 kts 318°
2026-04-25 20:40 38.09458 47.14891 36283 ft 429 kts 318°
2026-04-25 20:40 38.14269 47.10398 36288 ft 429 kts 318°
2026-04-25 20:41 38.19245 47.05737 36283 ft 429 kts 317°
2026-04-25 20:41 38.24092 47.01185 36271 ft 429 kts 317°
2026-04-25 20:42 38.28917 46.96646 36262 ft 429 kts 317°
2026-04-25 20:42 38.33810 46.92035 36265 ft 429 kts 317°
2026-04-25 20:43 38.38777 46.87354 36273 ft 429 kts 317°
2026-04-25 20:43 38.43644 46.82768 36287 ft 429 kts 317°
2026-04-25 20:44 38.48585 46.78103 36211 ft 432 kts 317°
2026-04-25 20:44 38.51080 46.75743 36031 ft 432 kts 317°
2026-04-25 20:44 38.53672 46.73290 35788 ft 431 kts 317°
2026-04-25 20:45 38.56311 46.70792 35487 ft 430 kts 317°
2026-04-25 20:45 38.59045 46.68200 35293 ft 427 kts 317°
2026-04-25 20:45 38.61756 46.65621 35187 ft 429 kts 317°
2026-04-25 20:45 38.64482 46.63020 35080 ft 432 kts 317°
2026-04-25 20:46 38.69980 46.57772 34967 ft 432 kts 317°
2026-04-25 20:46 38.75429 46.52564 34885 ft 433 kts 317°
2026-04-25 20:47 38.80882 46.47344 35059 ft 430 kts 317°
2026-04-25 20:47 38.83573 46.44765 35237 ft 430 kts 317°
2026-04-25 20:47 38.86244 46.42199 35367 ft 433 kts 317°
2026-04-25 20:48 38.91889 46.37073 35400 ft 437 kts 322°
2026-04-25 20:48 38.97530 46.32918 35190 ft 438 kts 325°
2026-04-25 20:49 39.00602 46.30777 34990 ft 439 kts 325°
2026-04-25 20:49 39.03645 46.28665 34840 ft 436 kts 325°
2026-04-25 20:49 39.06559 46.26633 34713 ft 436 kts 325°
2026-04-25 20:49 39.09519 46.24553 34601 ft 437 kts 324°
2026-04-25 20:50 39.15087 46.20604 34537 ft 438 kts 324°
2026-04-25 20:50 39.21423 46.16076 34451 ft 438 kts 324°
2026-04-25 20:51 39.27794 46.11505 34341 ft 436 kts 324°
2026-04-25 20:51 39.34067 46.06990 34364 ft 436 kts 324°
2026-04-25 20:52 39.39205 46.03286 34607 ft 431 kts 323°
2026-04-25 20:52 39.43238 46.00377 35053 ft 427 kts 323°
2026-04-25 20:52 39.46252 45.98199 35370 ft 424 kts 323°
2026-04-25 20:53 39.49188 45.96074 35725 ft 422 kts 323°
2026-04-25 20:53 39.52155 45.93923 36092 ft 420 kts 323°
2026-04-25 20:53 39.55040 45.91829 36364 ft 421 kts 323°
2026-04-25 20:53 39.58009 45.89663 36386 ft 429 kts 323°
2026-04-25 20:54 39.64037 45.85158 36374 ft 430 kts 320°
2026-04-25 20:54 39.69457 45.79622 36320 ft 417 kts 309°
2026-04-25 20:55 39.74256 45.73275 36305 ft 416 kts 307°
2026-04-25 20:55 39.79062 45.66689 36173 ft 417 kts 307°
2026-04-25 20:56 39.81456 45.63415 36061 ft 415 kts 307°
2026-04-25 20:56 39.83768 45.60261 35942 ft 415 kts 307°
2026-04-25 20:56 39.88293 45.54094 35851 ft 416 kts 307°
2026-04-25 20:57 39.92783 45.47969 35735 ft 417 kts 307°
2026-04-25 20:57 39.97274 45.41840 35590 ft 417 kts 307°
2026-04-25 20:58 40.01756 45.35714 35504 ft 415 kts 307°
2026-04-25 20:58 40.03786 45.32936 35684 ft 414 kts 306°
2026-04-25 20:58 40.06016 45.29880 35870 ft 414 kts 306°
2026-04-25 20:59 40.08382 45.26630 36060 ft 416 kts 306°
2026-04-25 20:59 40.10572 45.23617 36169 ft 419 kts 306°
2026-04-25 20:59 40.14883 45.17683 36157 ft 416 kts 307°
2026-04-25 21:00 40.18058 45.13312 36023 ft 415 kts 307°
2026-04-25 21:00 40.24406 45.04539 35436 ft 418 kts 307°
2026-04-25 21:01 40.26781 45.01252 35111 ft 416 kts 307°
2026-04-25 21:01 40.31372 44.94900 35376 ft 407 kts 307°
2026-04-25 21:01 40.33655 44.91733 35674 ft 404 kts 307°
2026-04-25 21:02 40.35924 44.88580 35957 ft 401 kts 307°
2026-04-25 21:02 40.38192 44.85423 36211 ft 399 kts 307°
2026-04-25 21:02 40.40456 44.82262 36305 ft 405 kts 307°
2026-04-25 21:03 40.45087 44.75778 36329 ft 418 kts 307°
2026-04-25 21:03 40.49836 44.69144 36328 ft 414 kts 307°
2026-04-25 21:04 40.54473 44.62652 36238 ft 418 kts 307°
2026-04-25 21:04 40.56576 44.59703 36100 ft 417 kts 307°
2026-04-25 21:04 40.58537 44.56951 35974 ft 415 kts 307°
2026-04-25 21:04 40.60503 44.54189 35841 ft 415 kts 307°
2026-04-25 21:05 40.62475 44.51413 35702 ft 416 kts 307°
2026-04-25 21:05 40.64460 44.48616 35551 ft 416 kts 307°
2026-04-25 21:05 40.66412 44.45866 35505 ft 415 kts 307°
2026-04-25 21:06 40.70378 44.40264 35477 ft 418 kts 307°
2026-04-25 21:06 40.72347 44.37481 35617 ft 415 kts 307°
2026-04-25 21:06 40.74303 44.34715 35863 ft 413 kts 307°
2026-04-25 21:06 40.75620 44.32852 36025 ft 411 kts 307°
2026-04-25 21:07 40.78220 44.29169 36335 ft 410 kts 306°
2026-04-25 21:07 40.80159 44.26417 36513 ft 412 kts 306°
2026-04-25 21:07 40.82120 44.23625 36496 ft 418 kts 307°
2026-04-25 21:08 40.86071 44.17998 36389 ft 416 kts 307°
2026-04-25 21:08 40.89983 44.12431 36308 ft 415 kts 307°
2026-04-25 21:09 40.95858 44.04037 36299 ft 416 kts 307°
2026-04-25 21:09 40.99774 43.98431 36367 ft 416 kts 307°
2026-04-25 21:10 41.03702 43.92795 36388 ft 417 kts 307°
2026-04-25 21:10 41.07641 43.87135 36345 ft 417 kts 307°
2026-04-25 21:11 41.11636 43.81558 36313 ft 419 kts 310°
2026-04-25 21:11 41.16500 43.76887 36335 ft 433 kts 325°
2026-04-25 21:12 41.21978 43.73414 36354 ft 437 kts 330°
2026-04-25 21:12 41.26624 43.70763 36351 ft 437 kts 331°
2026-04-25 21:13 41.33132 43.67063 36333 ft 437 kts 330°
2026-04-25 21:13 41.38708 43.63837 36298 ft 437 kts 330°
2026-04-25 21:14 41.44271 43.60578 36263 ft 436 kts 330°
2026-04-25 21:14 41.49804 43.57314 36241 ft 435 kts 329°
2026-04-25 21:15 41.55309 43.54052 36222 ft 435 kts 329°
2026-04-25 21:15 41.60575 43.50241 36207 ft 423 kts 316°
2026-04-25 21:16 41.64590 43.44688 36197 ft 408 kts 300°
2026-04-25 21:16 41.67706 43.37809 36187 ft 403 kts 294°
2026-04-25 21:17 41.70424 43.31130 36213 ft 402 kts 292°
2026-04-25 21:17 41.73111 43.24485 36217 ft 403 kts 292°
2026-04-25 21:18 41.75796 43.17859 35936 ft 405 kts 292°
2026-04-25 21:18 41.77169 43.14479 35746 ft 403 kts 292°
2026-04-25 21:18 41.78539 43.11105 35562 ft 402 kts 293°
2026-04-25 21:19 41.79883 43.07792 35379 ft 403 kts 293°
2026-04-25 21:19 41.81353 43.04168 35220 ft 403 kts 293°
2026-04-25 21:19 41.82677 43.00897 35095 ft 404 kts 293°
2026-04-25 21:19 41.84070 42.97452 34968 ft 405 kts 293°
2026-04-25 21:20 41.85506 42.93900 34864 ft 404 kts 293°
2026-04-25 21:20 41.86485 42.91475 34857 ft 403 kts 293°
2026-04-25 21:20 41.89614 42.83712 34863 ft 406 kts 293°
2026-04-25 21:21 41.92305 42.77021 34867 ft 406 kts 293°
2026-04-25 21:21 41.94991 42.70329 34914 ft 405 kts 293°
2026-04-25 21:22 41.97662 42.63658 35089 ft 406 kts 293°
2026-04-25 21:22 41.98986 42.60345 35221 ft 405 kts 293°
2026-04-25 21:22 42.00308 42.57037 35492 ft 402 kts 293°
2026-04-25 21:23 42.01625 42.53737 35770 ft 400 kts 293°
2026-04-25 21:23 42.04089 42.47543 36099 ft 402 kts 293°
2026-04-25 21:23 42.09620 42.33592 36109 ft 406 kts 293°
2026-04-25 21:24 42.13729 42.23199 36096 ft 407 kts 293°
2026-04-25 21:24 42.16421 42.16363 36099 ft 407 kts 293°
2026-04-25 21:25 42.19150 42.09416 36102 ft 407 kts 293°
2026-04-25 21:25 42.21848 42.02531 35828 ft 408 kts 293°
2026-04-25 21:26 42.23172 41.99149 35612 ft 406 kts 293°
2026-04-25 21:26 42.24493 41.95772 35396 ft 405 kts 293°
2026-04-25 21:26 42.25799 41.92427 35181 ft 406 kts 293°
2026-04-25 21:26 42.27134 41.89002 34958 ft 406 kts 293°
2026-04-25 21:27 42.28466 41.85579 34709 ft 407 kts 293°
2026-04-25 21:27 42.29817 41.82106 34458 ft 407 kts 293°
2026-04-25 21:27 42.31213 41.78513 34197 ft 407 kts 293°
2026-04-25 21:27 42.32615 41.74902 33921 ft 408 kts 293°
2026-04-25 21:28 42.34038 41.71228 33606 ft 408 kts 293°
2026-04-25 21:28 42.35465 41.67543 33290 ft 409 kts 293°
2026-04-25 21:28 42.36900 41.63831 32972 ft 407 kts 293°
2026-04-25 21:28 42.38347 41.60086 32651 ft 404 kts 293°
2026-04-25 21:29 42.39827 41.56251 32322 ft 403 kts 294°
2026-04-25 21:29 42.41273 41.52496 32000 ft 401 kts 294°
2026-04-25 21:29 42.42700 41.48786 31680 ft 400 kts 294°
2026-04-25 21:29 42.44137 41.45044 31358 ft 398 kts 294°
2026-04-25 21:30 42.45587 41.41262 31031 ft 396 kts 294°
2026-04-25 21:30 42.47042 41.37464 30702 ft 395 kts 294°
2026-04-25 21:30 42.48403 41.33906 30394 ft 393 kts 293°
2026-04-25 21:30 42.49308 41.31537 30188 ft 392 kts 293°
2026-04-25 21:31 42.51230 41.26502 29781 ft 389 kts 293°
2026-04-25 21:31 42.52657 41.22758 29477 ft 388 kts 294°
2026-04-25 21:31 42.54032 41.19144 29171 ft 386 kts 294°
2026-04-25 21:31 42.55473 41.15352 28849 ft 385 kts 294°
2026-04-25 21:32 42.56895 41.11603 28531 ft 383 kts 294°
2026-04-25 21:32 42.58287 41.07931 28216 ft 382 kts 294°
2026-04-25 21:32 42.59669 41.04281 27903 ft 380 kts 294°
2026-04-25 21:32 42.61073 41.00567 27584 ft 379 kts 294°
2026-04-25 21:33 42.62472 40.96860 27264 ft 377 kts 294°
2026-04-25 21:33 42.63927 40.93005 26931 ft 376 kts 294°
2026-04-25 21:33 42.65366 40.89184 26601 ft 374 kts 294°
2026-04-25 21:33 42.66775 40.85435 26276 ft 373 kts 294°
2026-04-25 21:34 42.68168 40.81728 25952 ft 371 kts 294°
2026-04-25 21:34 42.69588 40.77942 25620 ft 370 kts 294°
2026-04-25 21:34 42.70995 40.74187 25290 ft 368 kts 294°
2026-04-25 21:34 42.72409 40.70409 24960 ft 366 kts 294°
2026-04-25 21:35 42.73775 40.66751 24641 ft 365 kts 294°
2026-04-25 21:35 42.75111 40.63171 24329 ft 364 kts 294°
2026-04-25 21:35 42.76427 40.59640 24021 ft 362 kts 294°
2026-04-25 21:35 42.77712 40.56186 23722 ft 361 kts 294°
2026-04-25 21:36 42.78962 40.52827 23494 ft 351 kts 294°
2026-04-25 21:36 42.80132 40.49680 23139 ft 349 kts 294°
2026-04-25 21:36 42.81306 40.46513 22555 ft 351 kts 294°
2026-04-25 21:36 42.82432 40.43470 22035 ft 350 kts 294°
2026-04-25 21:37 42.83572 40.40391 21644 ft 344 kts 294°
2026-04-25 21:37 42.84323 40.38361 21276 ft 344 kts 294°
2026-04-25 21:37 42.85771 40.34439 20584 ft 342 kts 294°
2026-04-25 21:37 42.86912 40.31346 20127 ft 337 kts 294°
2026-04-25 21:38 42.88044 40.28278 19626 ft 334 kts 294°
2026-04-25 21:38 42.89133 40.25316 19071 ft 333 kts 294°
2026-04-25 21:38 42.90214 40.22377 18680 ft 327 kts 294°
2026-04-25 21:38 42.91304 40.19407 18087 ft 328 kts 294°
2026-04-25 21:39 42.92395 40.16430 17662 ft 322 kts 294°
2026-04-25 21:39 42.93468 40.13502 17121 ft 322 kts 294°
2026-04-25 21:39 42.94534 40.10589 16643 ft 318 kts 294°
2026-04-25 21:39 42.95568 40.07763 16207 ft 315 kts 294°
2026-04-25 21:40 42.96584 40.04980 15655 ft 315 kts 294°
2026-04-25 21:40 42.97597 40.02208 15297 ft 309 kts 294°
2026-04-25 21:40 42.98594 39.99457 14711 ft 311 kts 293°
2026-04-25 21:40 42.99453 39.96708 14324 ft 305 kts 288°
2026-04-25 21:41 43.00163 39.93816 13899 ft 301 kts 285°
2026-04-25 21:41 43.00812 39.90883 13320 ft 303 kts 284°
2026-04-25 21:41 43.01479 39.87856 12974 ft 297 kts 285°
2026-04-25 21:41 43.02115 39.85045 12442 ft 299 kts 285°
2026-04-25 21:42 43.02765 39.82222 11999 ft 297 kts 285°
2026-04-25 21:42 43.03443 39.79304 11655 ft 297 kts 285°
2026-04-25 21:42 43.04138 39.76307 11250 ft 302 kts 285°
2026-04-25 21:42 43.04792 39.73466 10880 ft 299 kts 285°
2026-04-25 21:43 43.05417 39.70753 10682 ft 285 kts 285°
2026-04-25 21:43 43.06087 39.67835 10527 ft 278 kts 285°
2026-04-25 21:43 43.06723 39.65060 10319 ft 270 kts 285°
2026-04-25 21:43 43.07319 39.62448 9984 ft 266 kts 285°
2026-04-25 21:44 43.07917 39.59830 9649 ft 265 kts 286°
2026-04-25 21:44 43.08539 39.57113 9303 ft 264 kts 286°
2026-04-25 21:44 43.09668 39.52206 8673 ft 264 kts 286°
2026-04-25 21:45 43.10320 39.49800 8333 ft 265 kts 295°
2026-04-25 21:45 43.11005 39.48368 7914 ft 271 kts 312°
2026-04-25 21:45 43.13301 39.46678 7142 ft 277 kts 349°
2026-04-25 21:45 43.15332 39.46554 6868 ft 268 kts
2026-04-25 21:46 43.17273 39.47010 6557 ft 268 kts 21°
2026-04-25 21:46 43.18865 39.48566 6259 ft 266 kts 52°
2026-04-25 21:46 43.19831 39.51080 6220 ft 266 kts 70°
2026-04-25 21:46 43.20505 39.53858 6031 ft 267 kts 73°
2026-04-25 21:47 43.21146 39.56661 5738 ft 262 kts 73°
2026-04-25 21:47 43.21770 39.59375 5606 ft 251 kts 73°
2026-04-25 21:47 43.22362 39.61932 5527 ft 236 kts 73°
2026-04-25 21:47 43.22916 39.64319 5428 ft 224 kts 73°
2026-04-25 21:48 43.23450 39.66625 5161 ft 221 kts 73°
2026-04-25 21:48 43.23984 39.68933 4872 ft 219 kts 73°
2026-04-25 21:48 43.24517 39.71236 4572 ft 217 kts 73°
2026-04-25 21:48 43.25035 39.73479 4211 ft 219 kts 74°
2026-04-25 21:49 43.25545 39.75702 3924 ft 217 kts 73°
2026-04-25 21:49 43.26068 39.77966 3547 ft 219 kts 74°
2026-04-25 21:49 43.26561 39.80101 3390 ft 212 kts 73°
2026-04-25 21:49 43.27193 39.82117 3235 ft 206 kts 57°
2026-04-25 21:50 43.28389 39.83391 3092 ft 201 kts 24°
2026-04-25 21:50 43.29761 39.84193 2966 ft 193 kts 28°
2026-04-25 21:50 43.30956 39.85115 2801 ft 179 kts 32°
2026-04-25 21:50 43.31738 39.85730 2650 ft 177 kts 31°
2026-04-25 21:51 43.33276 39.86877 2330 ft 174 kts 30°
2026-04-25 21:51 43.34380 39.87697 2073 ft 171 kts 30°
2026-04-25 21:51 43.35482 39.88520 1840 ft 158 kts 30°
2026-04-25 21:51 43.36507 39.89285 1618 ft 149 kts 30°
2026-04-25 21:52 43.37510 39.90037 1396 ft 149 kts 30°
2026-04-25 21:52 43.38504 39.90781 1200 ft 146 kts 30°
2026-04-25 21:52 43.39464 39.91535 969 ft 146 kts 31°
2026-04-25 21:52 43.40427 39.92274 634 ft 141 kts 28°
2026-04-25 21:53 43.41393 39.92940 503 ft 138 kts 30°
2026-04-25 21:53 43.42347 39.93662 307 ft 138 kts 29°
2026-04-25 21:53 43.43325 39.94373 96 ft 137 kts 30°
2026-04-25 21:53 43.44239 39.95058 48 ft 121 kts 33°
2026-04-25 21:54 43.44886 39.95551 52 ft 65 kts 29°
2026-04-25 21:54 43.45302 39.95866 55 ft 36 kts 31°
2026-04-25 21:54 43.45367 39.96001 57 ft 14 kts 126°
2026-04-25 21:54 43.45290 39.95977 56 ft 12 kts 242°
2026-04-25 21:55 43.45296 39.95869 55 ft 5 kts 294°
2026-04-25 21:55 43.45305 39.95808 55 ft 4 kts 255°
2026-04-25 21:55 43.45283 39.95756 55 ft 5 kts 237°
2026-04-25 21:55 43.45258 39.95705 55 ft 6 kts 236°
2026-04-25 21:56 43.45230 39.95648 55 ft 6 kts 237°
2026-04-25 21:56 43.45210 39.95607 55 ft 6 kts 236°
2026-04-25 21:56 43.45166 39.95515 54 ft 8 kts 236°
2026-04-25 21:56 43.45125 39.95431 53 ft 8 kts 237°
2026-04-25 21:57 43.45092 39.95341 53 ft 8 kts 242°
2026-04-25 21:57 43.45057 39.95250 52 ft 9 kts 242°
2026-04-25 21:57 43.45019 39.95149 51 ft 10 kts 242°
2026-04-25 21:57 43.44973 39.95049 50 ft 11 kts 238°
2026-04-25 21:58 43.44932 39.94938 49 ft 11 kts 246°
2026-04-25 21:58 43.44891 39.94815 49 ft 12 kts 244°
2026-04-25 21:58 43.44846 39.94687 48 ft 13 kts 244°
2026-04-25 21:58 43.44801 39.94559 47 ft 10 kts 244°
2026-04-25 21:59 43.44771 39.94471 47 ft 5 kts 246°
2026-04-25 21:59 43.44767 39.94436 46 ft 2 kts 282°
2026-04-25 21:59 43.44775 39.94407 46 ft 2 kts 311°
2026-04-25 22:00 43.44800 39.94384 46 ft 0 kts 333°
2026-04-25 22:00 43.44808 39.94378 46 ft 2 kts 335°
2026-04-25 22:00 43.44818 39.94371 46 ft 0 kts 335°